Regional Weather Roundup
Issued by NWS Charleston, WV

Home | Current Version | Previous Version | Graphics & Text | Print | Product List | Glossary On
Versions: 1 2 3 4 5 6 7 8 9 10 11 12 13 14 15 16 17 18 19 20 21 22 23 24 25 26 27 28 29 30 31 32 33 34 35 36 37 38 39 40 41 42 43 44 45 46 47 48 49 50
924
ASUS41 KRLX 130410
RWRRLX
West Virginia Regional Weather Roundup
National Weather Service Charleston WV
1100 PM EST FRI FEB 12 2016

Note: "fair" indicates few or no clouds below 12,000 feet with no
significant weather and/or obstructions to visibility.

WVZ003-130500-
Northern Panhandle of West Virginia

CITY           SKY/WX    TMP DP  RH WIND       PRES   REMARKS
WHEELING         N/A     18   6  59 W15G25    30.03R WCI   4
$$

WVZ009-130500-
Northwest West Virginia

CITY           SKY/WX    TMP DP  RH WIND       PRES   REMARKS
PARKERSBURG    MOCLDY    20   6  55 W17G29    30.17R WCI   5
$$

WVZ006-130500-
Western West Virginia

CITY           SKY/WX    TMP DP  RH WIND       PRES   REMARKS
HUNTINGTON     SNOW      23  17  78 NW14G29   30.19R VSB 1/2
$$

WVZ015-130500-
West Central West Virginia

CITY           SKY/WX    TMP DP  RH WIND       PRES   REMARKS
CHARLESTON     FLURRIES  26  12  55 NW20G33   30.13R
$$

WVZ022-031-130500-
North Central West Virginia

CITY           SKY/WX    TMP DP  RH WIND       PRES   REMARKS
CLARKSBURG     LGT SNOW  21  17  84 NW16      30.02R VSB 3/4 WCI   7
MORGANTOWN     SNOW      20  14  77 W7        30.00S VSB 1/4
$$

WVZ025-035-042-045-130500-
Southern West Virginia

CITY           SKY/WX    TMP DP  RH WIND       PRES   REMARKS
BECKLEY        MOCLDY    21  13  71 W13G21    30.00S WCI   9
LOGAN          LGT SNOW  27  18  69 W8G15     30.09R
BLUEFIELD      LGT SNOW  20  16  84 NW15G25   29.98S VSB 1   WCI   6
LEWISBURG      FLURRIES  25  18  74 W8        29.97S
$$

WVZ047-130500-
Northern Mountains of West Virginia

CITY           SKY/WX    TMP DP  RH WIND       PRES   REMARKS
ELKINS         CLOUDY    20  10  65 W13G25    29.97F WCI   7
$$

WVZ052-130500-
Eastern Panhandle of West Virginia

CITY           SKY/WX    TMP DP  RH WIND       PRES   REMARKS
MARTINSBURG    CLOUDY    24  13  62 W10       29.98S
PETERSBURG     FLURRIES  26  13  59 NW13G20   29.99S
$$




USA.gov is the U.S. government's official web portal to all federal, state and local government web resources and services.